星链-1830 (STARLINK-1830 )

导读 | 星芒AI

STARLINK-1830 是 SpaceX Starlink 项目中的一颗低轨通信卫星,属于第 18 批部署的星链卫星群。该卫星于 2021 年发射,运行在约 550 公里的轨道高度,旨在为全球用户提供高速互联网服务。它采用先进的相控阵天线和激光通信技术,支持高带宽、低延迟的网络连接。作为星链星座的一部分,STARLINK-1830 有助于扩大 Starlink 在偏远和农村地区的覆盖范围,提升全球网络接入的公平性和效率。

基本信息
目录编号:
46727
目录名称:
STARLINK-1830
国际标识:
2020-073BK
轨道中心:
EARTH
卫星名称:
星链-1830
卫星全名:
星链-1830 (STARLINK-1830 )
卫星状态:
在轨 (已飞行1885 天)
发射日期:
2020-10-18 UTC
国别 :
美国 (US)
星等 :
--
轨道信息
数据来源 国际轨道数据
星历时间: 2025-12-16T06:52:50+0800
9小时前
查看轨道信息
半长轴: 6833.601km
偏心率: 0.0012031
轨道倾角: 53.051°
近地点辐角 114.485°
升交点赤经 222.616°
平近点角 245.741°
近地点: 447.244km
远地点: 463.688km
周期: 93.699分钟
每日圈数: 15.368389
详细信息
固有亮度:
5
最大亮度:
2.5
卫星平台:
Starlink V1.0
覆盖范围:
全球
运营商:
太空探索技术公司
运营商所在国:
美国
制造商(研发单位):
太空探索技术公司
制造商所在国:
美国
使用方式:
暂无
卫星简介
星链(Starlink)计划是由太空探索技术公司(SpaceX)提出的一个巨型低轨卫星互联网星座项目,计划在2019年至2024年间在太空搭建由约1.2万颗卫星组成的“星链”网络,其中1584颗将部署在地球上空550千米处的近地轨道,并从2020年开始工作。该卫星仍在工作。
2D轨道图
3D轨道图
轨道高度分析图
轨道倾角分析图
轨道综合分析图
查看轨道综合分析图